This is the latest recevied weather packets stored in our database for station/object VE7GEL. If no packets are shown the sender has not sent any weather packets the latest 10 day(s).
| Time | Temp. | Humidity | Pressure | Rain* | Wind** | Luminosity | Snow |
|---|---|---|---|---|---|---|---|
| 1777804172 | 14.44° C | 80% | 1014.5 hPa | 0 mm | - | 0 W/m² | - |
| 1777803302 | 14.44° C | 80% | 1014.8 hPa | 0 mm | - | 0 W/m² | - |
| 1777803269 | 14.44° C | 80% | 1014.5 hPa | 0 mm | - | 0 W/m² | - |
| 1777802371 | 15° C | 79% | 1014.3 hPa | 0 mm | - | 0 W/m² | - |
| 1777801467 | 15° C | 80% | 1014.3 hPa | 0 mm | - | 0 W/m² | - |
| 1777800567 | 14.44° C | 80% | 1014.3 hPa | 0 mm | - | 0 W/m² | - |
| 1777799661 | 14.44° C | 80% | 1014.4 hPa | 0 mm | - | 0 W/m² | - |
| 1777798761 | 14.44° C | 81% | 1014.3 hPa | 0 mm | - | 0 W/m² | - |
| 1777797902 | 15° C | 77% | 1014.6 hPa | 0 mm | - | 0 W/m² | - |
| 1777797859 | 15° C | 77% | 1014.3 hPa | 0 mm | - | 0 W/m² | - |
| 1777797004 | 15° C | 78% | 1014.5 hPa | 0 mm | - | 0 W/m² | - |
| 1777796958 | 15° C | 77% | 1014.2 hPa | 0 mm | - | 0 W/m² | - |
| 1777796059 | 15° C | 79% | 1014.2 hPa | 0 mm | - | 0 W/m² | - |
| 1777795158 | 15.56° C | 78% | 1014.2 hPa | 0 mm | - | 0 W/m² | - |
| 1777794303 | 16.11° C | 74% | 1014.4 hPa | 0 mm | - | 0 W/m² | - |
| 1777794255 | 16.11° C | 74% | 1014.1 hPa | 0 mm | - | 0 W/m² | - |
| 1777793358 | 16.11° C | 74% | 1014.1 hPa | 0 mm | - | 0 W/m² | - |
| 1777792503 | 16.11° C | 75% | 1014.4 hPa | 0 mm | - | 0 W/m² | - |
| 1777792456 | 16.11° C | 75% | 1014.1 hPa | 0 mm | - | 0 W/m² | - |
| 1777791553 | 16.11° C | 77% | 1014.1 hPa | 0 mm | - | 0 W/m² | - |
| 1777790702 | 16.67° C | 72% | 1014.4 hPa | 0 mm | - | 0 W/m² | - |
| 1777790654 | 16.67° C | 72% | 1014.1 hPa | 0 mm | - | 0 W/m² | - |
| 1777789755 | 17.22° C | 70% | 1014.1 hPa | 0 mm | - | 0 W/m² | - |
| 1777788902 | 17.22° C | 67% | 1014.4 hPa | 0 mm | - | 0 W/m² | - |
| 1777788853 | 17.22° C | 67% | 1014.1 hPa | 0 mm | - | 0 W/m² | - |
* Rain latest hour (hover to see other rain measurements)
** Current wind speed in m/s (hover to see current wind gust speed)